Year,Month,Day,Hour,Minute,Value (Times are PST for temperature in C)
2023,05,02,00,00,10.10
2023,05,02,00,01,10.10
2023,05,02,00,02,10.10
2023,05,02,00,03,10.10
2023,05,02,00,04,10.10
2023,05,02,00,05,10.10
2023,05,02,00,06,10.10
2023,05,02,00,07,10.10
2023,05,02,00,08,10.10
2023,05,02,00,09,10.10
2023,05,02,00,10,10.10
2023,05,02,00,11,10.10
2023,05,02,00,12,10.10
2023,05,02,00,13,10.10
2023,05,02,00,14,10.10
2023,05,02,00,15,10.10
2023,05,02,00,16,10.10
2023,05,02,00,17,10.10
2023,05,02,00,18,10.10
2023,05,02,00,19,10.10
2023,05,02,00,20,10.10
2023,05,02,00,21,10.00
2023,05,02,00,22,9.90
2023,05,02,00,23,9.90
2023,05,02,00,24,9.90
2023,05,02,00,25,9.90
2023,05,02,00,26,9.90
2023,05,02,00,27,9.90
2023,05,02,00,28,9.90
2023,05,02,00,29,9.90
2023,05,02,00,30,9.90
2023,05,02,00,31,9.90
2023,05,02,00,32,9.90
2023,05,02,00,33,9.90
2023,05,02,00,34,9.90
2023,05,02,00,35,9.90
2023,05,02,00,36,9.90
2023,05,02,00,37,9.90
2023,05,02,00,38,9.90
2023,05,02,00,39,9.90
2023,05,02,00,40,9.80
2023,05,02,00,41,9.80
2023,05,02,00,42,9.80
2023,05,02,00,43,9.80
2023,05,02,00,44,9.80
2023,05,02,00,45,9.80
2023,05,02,00,46,9.80
2023,05,02,00,47,9.80
2023,05,02,00,48,9.70
2023,05,02,00,49,9.70
2023,05,02,00,50,9.70
2023,05,02,00,51,9.70
2023,05,02,00,52,9.70
2023,05,02,00,53,9.70
2023,05,02,00,54,9.70
2023,05,02,00,55,9.70
2023,05,02,00,56,9.70
2023,05,02,00,57,9.70
2023,05,02,00,58,9.70
2023,05,02,00,59,9.70
2023,05,02,01,00,9.70
2023,05,02,01,01,9.70
2023,05,02,01,02,9.70
2023,05,02,01,03,9.70
2023,05,02,01,04,9.60
2023,05,02,01,05,9.60
2023,05,02,01,06,9.60
2023,05,02,01,07,9.60
2023,05,02,01,08,9.60
2023,05,02,01,09,9.60
2023,05,02,01,10,9.60
2023,05,02,01,11,9.60
2023,05,02,01,12,9.60
2023,05,02,01,13,9.60
2023,05,02,01,14,9.60
2023,05,02,01,15,9.60
2023,05,02,01,16,9.60
2023,05,02,01,17,9.60
2023,05,02,01,18,9.60
2023,05,02,01,19,9.60
2023,05,02,01,20,9.60
2023,05,02,01,21,9.70
2023,05,02,01,22,9.70
2023,05,02,01,23,9.70
2023,05,02,01,24,9.80
2023,05,02,01,25,9.80
2023,05,02,01,26,9.80
2023,05,02,01,27,9.90
2023,05,02,01,28,9.90
2023,05,02,01,29,9.90
2023,05,02,01,30,9.90
2023,05,02,01,31,9.90
2023,05,02,01,32,9.90
2023,05,02,01,33,9.90
2023,05,02,01,34,10.00
2023,05,02,01,35,10.00
2023,05,02,01,36,10.10
2023,05,02,01,37,10.10
2023,05,02,01,38,10.10
2023,05,02,01,39,10.10
2023,05,02,01,40,10.20
2023,05,02,01,41,10.30
2023,05,02,01,42,10.40
2023,05,02,01,43,10.50
2023,05,02,01,44,10.60
2023,05,02,01,45,10.70
2023,05,02,01,46,10.80
2023,05,02,01,47,10.90
2023,05,02,01,48,10.90
2023,05,02,01,49,11.00
2023,05,02,01,50,11.10
2023,05,02,01,51,11.10
2023,05,02,01,52,11.20
2023,05,02,01,53,11.20
2023,05,02,01,54,11.20
2023,05,02,01,55,11.30
2023,05,02,01,56,11.30
2023,05,02,01,57,11.30
2023,05,02,01,58,11.20
2023,05,02,01,59,11.00
2023,05,02,02,00,10.90
2023,05,02,02,01,10.70
2023,05,02,02,02,10.60
2023,05,02,02,03,10.60
2023,05,02,02,04,10.50
2023,05,02,02,05,10.40
2023,05,02,02,06,10.40
2023,05,02,02,07,10.40
2023,05,02,02,08,10.40
2023,05,02,02,09,10.40
2023,05,02,02,10,10.40
2023,05,02,02,11,10.40
2023,05,02,02,12,10.40
2023,05,02,02,13,10.50
2023,05,02,02,14,10.60
2023,05,02,02,15,10.70
2023,05,02,02,16,10.70
2023,05,02,02,17,10.80
2023,05,02,02,18,10.80
2023,05,02,02,19,10.80
2023,05,02,02,20,10.80
2023,05,02,02,21,10.70
2023,05,02,02,22,10.70
2023,05,02,02,23,10.60
2023,05,02,02,24,10.60
2023,05,02,02,25,10.60
2023,05,02,02,26,10.70
2023,05,02,02,27,10.80
2023,05,02,02,28,10.90
2023,05,02,02,29,11.00
2023,05,02,02,30,11.10
2023,05,02,02,31,11.20
2023,05,02,02,32,11.20
2023,05,02,02,33,11.30
2023,05,02,02,34,11.40
2023,05,02,02,35,11.40
2023,05,02,02,36,11.40
2023,05,02,02,37,11.40
2023,05,02,02,38,11.40
2023,05,02,02,39,11.50
2023,05,02,02,40,11.60
2023,05,02,02,41,11.60
2023,05,02,02,42,11.60
2023,05,02,02,43,11.60
2023,05,02,02,44,11.60
2023,05,02,02,45,11.60
2023,05,02,02,46,11.60
2023,05,02,02,47,11.60
2023,05,02,02,48,11.60
2023,05,02,02,49,11.60
2023,05,02,02,50,11.60
2023,05,02,02,51,11.40
2023,05,02,02,52,11.40
2023,05,02,02,53,11.40
2023,05,02,02,54,11.40
2023,05,02,02,55,11.40
2023,05,02,02,56,11.30
2023,05,02,02,57,11.30
2023,05,02,02,58,11.30
2023,05,02,02,59,11.20
2023,05,02,03,00,11.20
2023,05,02,03,01,11.10
2023,05,02,03,02,11.10
2023,05,02,03,03,11.10
2023,05,02,03,04,11.10
2023,05,02,03,05,11.00
2023,05,02,03,06,10.90
2023,05,02,03,07,10.90
2023,05,02,03,08,10.90
2023,05,02,03,09,10.80
2023,05,02,03,10,10.70
2023,05,02,03,11,10.70
2023,05,02,03,12,10.60
2023,05,02,03,13,10.60
2023,05,02,03,14,10.60
2023,05,02,03,15,10.60
2023,05,02,03,16,10.50
2023,05,02,03,17,10.40
2023,05,02,03,18,10.40
2023,05,02,03,19,10.40
2023,05,02,03,20,10.40
2023,05,02,03,21,10.40
2023,05,02,03,22,10.40
2023,05,02,03,23,10.30
2023,05,02,03,24,10.30
2023,05,02,03,25,10.30
2023,05,02,03,26,10.30
2023,05,02,03,27,10.30
2023,05,02,03,28,10.20
2023,05,02,03,29,10.20
2023,05,02,03,30,10.20
2023,05,02,03,31,10.10
2023,05,02,03,32,10.10
2023,05,02,03,33,10.10
2023,05,02,03,34,10.10
2023,05,02,03,35,10.10
2023,05,02,03,36,10.10
2023,05,02,03,37,10.10
2023,05,02,03,38,10.10
2023,05,02,03,39,10.00
2023,05,02,03,40,9.90
2023,05,02,03,41,9.90
2023,05,02,03,42,9.90
2023,05,02,03,43,9.90
2023,05,02,03,44,9.90
2023,05,02,03,45,9.90
2023,05,02,03,46,9.90
2023,05,02,03,47,9.90
2023,05,02,03,48,9.90
2023,05,02,03,49,9.90
2023,05,02,03,50,9.90
2023,05,02,03,51,9.80
2023,05,02,03,52,9.80
2023,05,02,03,53,9.80
2023,05,02,03,54,9.80
2023,05,02,03,55,9.80
2023,05,02,03,56,9.80
2023,05,02,03,57,9.80
2023,05,02,03,58,9.80
2023,05,02,03,59,9.80
2023,05,02,04,00,9.80
2023,05,02,04,01,9.70
2023,05,02,04,02,9.70
2023,05,02,04,03,9.70
2023,05,02,04,04,9.70
2023,05,02,04,05,9.70
2023,05,02,04,06,9.70
2023,05,02,04,07,9.70
2023,05,02,04,08,9.70
2023,05,02,04,09,9.70
2023,05,02,04,10,9.70
2023,05,02,04,11,9.70
2023,05,02,04,12,9.70
2023,05,02,04,13,9.70
2023,05,02,04,14,9.70
2023,05,02,04,15,9.70
2023,05,02,04,16,9.70
2023,05,02,04,17,9.70
2023,05,02,04,18,9.70
2023,05,02,04,19,9.70
2023,05,02,04,20,9.70
2023,05,02,04,21,9.70
2023,05,02,04,22,9.70
2023,05,02,04,23,9.70
2023,05,02,04,24,9.70
2023,05,02,04,25,9.80
2023,05,02,04,26,9.80
2023,05,02,04,27,9.90
2023,05,02,04,28,9.90
2023,05,02,04,29,9.90
2023,05,02,04,30,9.90
2023,05,02,04,31,10.00
2023,05,02,04,32,10.10
2023,05,02,04,33,10.10
2023,05,02,04,34,10.10
2023,05,02,04,35,10.10
2023,05,02,04,36,10.10
2023,05,02,04,37,10.10
2023,05,02,04,38,10.10
2023,05,02,04,39,10.10
2023,05,02,04,40,10.10
2023,05,02,04,41,10.10
2023,05,02,04,42,9.90
2023,05,02,04,43,9.90
2023,05,02,04,44,9.90
2023,05,02,04,45,9.90
2023,05,02,04,46,9.90
2023,05,02,04,47,9.90
2023,05,02,04,48,9.90
2023,05,02,04,49,9.90
2023,05,02,04,50,9.90
2023,05,02,04,51,9.90
2023,05,02,04,52,9.80
2023,05,02,04,53,9.80
2023,05,02,04,54,9.80
2023,05,02,04,55,9.70
2023,05,02,04,56,9.70
2023,05,02,04,57,9.70
2023,05,02,04,58,9.70
2023,05,02,04,59,9.60
2023,05,02,05,00,9.60
2023,05,02,05,01,9.50
2023,05,02,05,02,9.50
2023,05,02,05,03,9.50
2023,05,02,05,04,9.40
2023,05,02,05,05,9.40
2023,05,02,05,06,9.40
2023,05,02,05,07,9.30
2023,05,02,05,08,9.30
2023,05,02,05,09,9.30
2023,05,02,05,10,9.30
2023,05,02,05,11,9.30
2023,05,02,05,12,9.30
2023,05,02,05,13,9.30
2023,05,02,05,14,9.30
2023,05,02,05,15,9.30
2023,05,02,05,16,9.30
2023,05,02,05,17,9.30
2023,05,02,05,18,9.30
2023,05,02,05,19,9.30
2023,05,02,05,20,9.30
2023,05,02,05,21,9.30
2023,05,02,05,22,9.30
2023,05,02,05,23,9.30
2023,05,02,05,24,9.30
2023,05,02,05,25,9.30
2023,05,02,05,26,9.30
2023,05,02,05,27,9.30
2023,05,02,05,28,9.30
2023,05,02,05,29,9.20
2023,05,02,05,30,9.20
2023,05,02,05,31,9.20
2023,05,02,05,32,9.20
2023,05,02,05,33,9.20
2023,05,02,05,34,9.20
2023,05,02,05,35,9.20
2023,05,02,05,36,9.20
2023,05,02,05,37,9.20
2023,05,02,05,38,9.20
2023,05,02,05,39,9.20
2023,05,02,05,40,9.20
2023,05,02,05,41,9.20
2023,05,02,05,42,9.20
2023,05,02,05,43,9.20
2023,05,02,05,44,9.20
2023,05,02,05,45,9.20
2023,05,02,05,46,9.20
2023,05,02,05,47,9.20
2023,05,02,05,48,9.20
2023,05,02,05,49,9.20
2023,05,02,05,50,9.20
2023,05,02,05,51,9.20
2023,05,02,05,52,9.20
2023,05,02,05,53,9.20
2023,05,02,05,54,9.20
2023,05,02,05,55,9.20
2023,05,02,05,56,9.20
2023,05,02,05,57,9.20
2023,05,02,05,58,9.20
2023,05,02,05,59,9.20
2023,05,02,06,00,9.30
2023,05,02,06,01,9.30
2023,05,02,06,02,9.30
2023,05,02,06,03,9.30
2023,05,02,06,04,9.30
2023,05,02,06,05,9.30
2023,05,02,06,06,9.30
2023,05,02,06,07,9.30
2023,05,02,06,08,9.30
2023,05,02,06,09,9.40
2023,05,02,06,10,9.40
2023,05,02,06,11,9.40
2023,05,02,06,12,9.40
2023,05,02,06,13,9.40
2023,05,02,06,14,9.40
2023,05,02,06,15,9.40
2023,05,02,06,16,9.40
2023,05,02,06,17,9.40
2023,05,02,06,18,9.50
2023,05,02,06,19,9.50
2023,05,02,06,20,9.50
2023,05,02,06,21,9.50
2023,05,02,06,22,9.50
2023,05,02,06,23,9.50
2023,05,02,06,24,9.50
2023,05,02,06,25,9.50
2023,05,02,06,26,9.50
2023,05,02,06,27,9.50
2023,05,02,06,28,9.40
2023,05,02,06,29,9.40
2023,05,02,06,30,9.40
2023,05,02,06,31,9.40
2023,05,02,06,32,9.40
2023,05,02,06,33,9.40
2023,05,02,06,34,9.40
2023,05,02,06,35,9.40
2023,05,02,06,36,9.40
2023,05,02,06,37,9.40
2023,05,02,06,38,9.40
2023,05,02,06,39,9.40
2023,05,02,06,40,9.40
2023,05,02,06,41,9.40
2023,05,02,06,42,9.40
2023,05,02,06,43,9.50
2023,05,02,06,44,9.50
2023,05,02,06,45,9.50
2023,05,02,06,46,9.50
2023,05,02,06,47,9.50
2023,05,02,06,48,9.50
2023,05,02,06,49,9.50
2023,05,02,06,50,9.50
2023,05,02,06,51,9.50
2023,05,02,06,52,9.50
2023,05,02,06,53,9.50
2023,05,02,06,54,9.50
2023,05,02,06,55,9.50
2023,05,02,06,56,9.50
2023,05,02,06,57,9.50
2023,05,02,06,58,9.50
2023,05,02,06,59,9.50
2023,05,02,07,00,9.50
2023,05,02,07,01,9.60
2023,05,02,07,02,9.60
2023,05,02,07,03,9.60
2023,05,02,07,04,9.60
2023,05,02,07,05,9.60
2023,05,02,07,06,9.60
2023,05,02,07,07,9.60
2023,05,02,07,08,9.70
2023,05,02,07,09,9.70
2023,05,02,07,10,9.70
2023,05,02,07,11,9.70
2023,05,02,07,12,9.70
2023,05,02,07,13,9.70
2023,05,02,07,14,9.70
2023,05,02,07,15,9.70
2023,05,02,07,16,9.70
2023,05,02,07,17,9.70
2023,05,02,07,18,9.70
2023,05,02,07,19,9.70
2023,05,02,07,20,9.70
2023,05,02,07,21,9.80
2023,05,02,07,22,9.80
2023,05,02,07,23,9.90
2023,05,02,07,24,9.90
2023,05,02,07,25,9.90
2023,05,02,07,26,9.90
2023,05,02,07,27,9.90
2023,05,02,07,28,9.90
2023,05,02,07,29,9.90
2023,05,02,07,30,10.00
2023,05,02,07,31,10.10
2023,05,02,07,32,10.10
2023,05,02,07,33,10.10
2023,05,02,07,34,10.10
2023,05,02,07,35,10.20
2023,05,02,07,36,10.20
2023,05,02,07,37,10.20
2023,05,02,07,38,10.30
2023,05,02,07,39,10.30
2023,05,02,07,40,10.40
2023,05,02,07,41,10.40
2023,05,02,07,42,10.50
2023,05,02,07,43,10.60
2023,05,02,07,44,10.60
2023,05,02,07,45,10.70
2023,05,02,07,46,10.70
2023,05,02,07,47,10.80
2023,05,02,07,48,10.80
2023,05,02,07,49,10.90
2023,05,02,07,50,10.90
2023,05,02,07,51,10.90
2023,05,02,07,52,11.00
2023,05,02,07,53,11.10
2023,05,02,07,54,11.10
2023,05,02,07,55,11.10
2023,05,02,07,56,11.10
2023,05,02,07,57,11.20
2023,05,02,07,58,11.20
2023,05,02,07,59,11.30
2023,05,02,08,00,11.30
2023,05,02,08,01,11.40
2023,05,02,08,02,11.40
2023,05,02,08,03,11.50
2023,05,02,08,04,11.60
2023,05,02,08,05,11.60
2023,05,02,08,06,11.60
2023,05,02,08,07,11.70
2023,05,02,08,08,11.70
2023,05,02,08,09,11.70
2023,05,02,08,10,11.70
2023,05,02,08,11,11.70
2023,05,02,08,12,11.70
2023,05,02,08,13,11.70
2023,05,02,08,14,11.70
2023,05,02,08,15,11.70
2023,05,02,08,16,11.80
2023,05,02,08,17,11.80
2023,05,02,08,18,11.80
2023,05,02,08,19,11.80
2023,05,02,08,20,11.80
2023,05,02,08,21,11.90
2023,05,02,08,22,11.90
2023,05,02,08,23,11.90
2023,05,02,08,24,12.00
2023,05,02,08,25,12.00
2023,05,02,08,26,12.00
2023,05,02,08,27,12.00
2023,05,02,08,28,12.10
2023,05,02,08,29,12.10
2023,05,02,08,30,12.10
2023,05,02,08,31,12.20
2023,05,02,08,32,12.30
2023,05,02,08,33,12.30
2023,05,02,08,34,12.40
2023,05,02,08,35,12.40
2023,05,02,08,36,12.40
2023,05,02,08,37,12.30
2023,05,02,08,38,12.40
2023,05,02,08,39,12.40
2023,05,02,08,40,12.50
2023,05,02,08,41,12.50
2023,05,02,08,42,12.50
2023,05,02,08,43,12.50
2023,05,02,08,44,12.60
2023,05,02,08,45,12.60
2023,05,02,08,46,12.70
2023,05,02,08,47,12.70
2023,05,02,08,48,12.70
2023,05,02,08,49,12.80
2023,05,02,08,50,12.80
2023,05,02,08,51,12.80
2023,05,02,08,52,12.90
2023,05,02,08,53,12.90
2023,05,02,08,54,12.90
2023,05,02,08,55,12.90
2023,05,02,08,56,13.00
2023,05,02,08,57,13.10
2023,05,02,08,58,13.10
2023,05,02,08,59,13.20
2023,05,02,09,00,13.30
2023,05,02,09,01,13.30
2023,05,02,09,02,13.30
2023,05,02,09,03,13.30
2023,05,02,09,04,13.30
2023,05,02,09,05,13.30
2023,05,02,09,06,13.30
2023,05,02,09,07,13.40
2023,05,02,09,08,13.40
2023,05,02,09,09,13.50
2023,05,02,09,10,13.50
2023,05,02,09,11,13.60
2023,05,02,09,12,13.60
2023,05,02,09,13,13.70
2023,05,02,09,14,13.80
2023,05,02,09,15,13.90
2023,05,02,09,16,13.90
2023,05,02,09,17,13.90
2023,05,02,09,18,13.90
2023,05,02,09,19,14.00
2023,05,02,09,20,14.00
2023,05,02,09,21,14.00
2023,05,02,09,22,14.00
2023,05,02,09,23,14.10
2023,05,02,09,24,14.10
2023,05,02,09,25,14.20
2023,05,02,09,26,14.20
2023,05,02,09,27,14.30
2023,05,02,09,28,14.40
2023,05,02,09,29,14.40
2023,05,02,09,30,14.40
2023,05,02,09,31,14.40
2023,05,02,09,32,14.40
2023,05,02,09,33,14.30
2023,05,02,09,34,14.40
2023,05,02,09,35,14.40
2023,05,02,09,36,14.40
2023,05,02,09,37,14.40
2023,05,02,09,38,14.40
2023,05,02,09,39,14.50
2023,05,02,09,40,14.50
2023,05,02,09,41,14.50
2023,05,02,09,42,14.40
2023,05,02,09,43,14.40
2023,05,02,09,44,14.30
2023,05,02,09,45,14.20
2023,05,02,09,46,14.20
2023,05,02,09,47,14.20
2023,05,02,09,48,14.10
2023,05,02,09,49,14.10
2023,05,02,09,50,14.10
2023,05,02,09,51,14.10
2023,05,02,09,52,14.10
2023,05,02,09,53,14.20
2023,05,02,09,54,14.20
2023,05,02,09,55,14.20
2023,05,02,09,56,14.20
2023,05,02,09,57,14.20
2023,05,02,09,58,14.10
2023,05,02,09,59,14.10
2023,05,02,10,00,14.00
2023,05,02,10,01,14.00
2023,05,02,10,02,14.10
2023,05,02,10,03,14.20
2023,05,02,10,04,14.20
2023,05,02,10,05,14.10
2023,05,02,10,06,14.10
2023,05,02,10,07,14.10
2023,05,02,10,08,14.10
2023,05,02,10,09,14.10
2023,05,02,10,10,14.10
2023,05,02,10,11,14.10
2023,05,02,10,12,14.20
2023,05,02,10,13,14.20
2023,05,02,10,14,14.40
2023,05,02,10,15,14.50
2023,05,02,10,16,14.60
2023,05,02,10,17,14.70
2023,05,02,10,18,14.70
2023,05,02,10,19,14.70
2023,05,02,10,20,14.60
2023,05,02,10,21,14.60
2023,05,02,10,22,14.60
2023,05,02,10,23,14.60
2023,05,02,10,24,14.50
2023,05,02,10,25,14.40
2023,05,02,10,26,14.40
2023,05,02,10,27,14.30
2023,05,02,10,28,14.30
2023,05,02,10,29,14.30
2023,05,02,10,30,14.40
2023,05,02,10,31,14.40
2023,05,02,10,32,14.50
2023,05,02,10,33,14.50
2023,05,02,10,34,14.50
2023,05,02,10,35,14.50
2023,05,02,10,36,14.50
2023,05,02,10,37,14.50
2023,05,02,10,38,14.50
2023,05,02,10,39,14.40
2023,05,02,10,40,14.30
2023,05,02,10,41,14.30
2023,05,02,10,42,14.30
2023,05,02,10,43,14.30
2023,05,02,10,44,14.30
2023,05,02,10,45,14.20
2023,05,02,10,46,14.20
2023,05,02,10,47,14.10
2023,05,02,10,48,14.10
2023,05,02,10,49,14.10
2023,05,02,10,50,14.00
2023,05,02,10,51,14.10
2023,05,02,10,52,14.20
2023,05,02,10,53,14.30
2023,05,02,10,54,14.30
2023,05,02,10,55,14.30
2023,05,02,10,56,14.30
2023,05,02,10,57,14.30
2023,05,02,10,58,14.30
2023,05,02,10,59,14.30
2023,05,02,11,00,14.30
2023,05,02,11,01,14.30
2023,05,02,11,02,14.30
2023,05,02,11,03,14.30
2023,05,02,11,04,14.30
2023,05,02,11,05,14.30
2023,05,02,11,06,14.20
2023,05,02,11,07,14.20
2023,05,02,11,08,14.30
2023,05,02,11,09,14.40
2023,05,02,11,10,14.40
2023,05,02,11,11,14.50
2023,05,02,11,12,14.50
2023,05,02,11,13,14.50
2023,05,02,11,14,14.60
2023,05,02,11,15,14.80
2023,05,02,11,16,14.80
2023,05,02,11,17,14.90
2023,05,02,11,18,15.00
2023,05,02,11,19,15.10
2023,05,02,11,20,15.20
2023,05,02,11,21,15.40
2023,05,02,11,22,15.50
2023,05,02,11,23,15.50
2023,05,02,11,24,15.40
2023,05,02,11,25,15.30
2023,05,02,11,26,15.30
2023,05,02,11,27,15.20
2023,05,02,11,28,15.20
2023,05,02,11,29,15.10
2023,05,02,11,30,15.10
2023,05,02,11,31,15.10
2023,05,02,11,32,15.30
2023,05,02,11,33,15.30
2023,05,02,11,34,15.30
2023,05,02,11,35,15.30
2023,05,02,11,36,15.30
2023,05,02,11,37,15.30
2023,05,02,11,38,15.30
2023,05,02,11,39,15.30
2023,05,02,11,40,15.30
2023,05,02,11,41,15.30
2023,05,02,11,42,15.30
2023,05,02,11,43,15.30
2023,05,02,11,44,15.30
2023,05,02,11,45,15.30
2023,05,02,11,46,15.40
2023,05,02,11,47,15.50
2023,05,02,11,48,15.60
2023,05,02,11,49,15.70
2023,05,02,11,50,15.70
2023,05,02,11,51,15.80
2023,05,02,11,52,15.80
2023,05,02,11,53,15.90
2023,05,02,11,54,16.00
2023,05,02,11,55,16.10
2023,05,02,11,56,16.20
2023,05,02,11,57,16.20
2023,05,02,11,58,16.10
2023,05,02,11,59,16.00
2023,05,02,12,00,15.90
2023,05,02,12,01,15.90
2023,05,02,12,02,15.90
2023,05,02,12,03,15.80
2023,05,02,12,04,15.80
2023,05,02,12,05,15.70
2023,05,02,12,06,15.60
2023,05,02,12,07,15.70
2023,05,02,12,08,15.80
2023,05,02,12,09,15.90
2023,05,02,12,10,16.00
2023,05,02,12,11,16.10
2023,05,02,12,12,16.20
2023,05,02,12,13,16.30
2023,05,02,12,14,16.40
2023,05,02,12,15,16.40
2023,05,02,12,16,16.40
2023,05,02,12,17,16.40
2023,05,02,12,18,16.40
2023,05,02,12,19,16.40
2023,05,02,12,20,16.50
2023,05,02,12,21,16.70
2023,05,02,12,22,16.70
2023,05,02,12,23,16.80
2023,05,02,12,24,16.90
2023,05,02,12,25,16.90
2023,05,02,12,26,16.80
2023,05,02,12,27,16.70
2023,05,02,12,28,16.70
2023,05,02,12,29,16.70
2023,05,02,12,30,16.80
2023,05,02,12,31,16.80
2023,05,02,12,32,16.90
2023,05,02,12,33,16.90
2023,05,02,12,34,16.90
2023,05,02,12,35,16.90
2023,05,02,12,36,17.00
2023,05,02,12,37,17.00
2023,05,02,12,38,17.10
2023,05,02,12,39,17.20
2023,05,02,12,40,17.30
2023,05,02,12,41,17.30
2023,05,02,12,42,17.30
2023,05,02,12,43,17.30
2023,05,02,12,44,17.30
2023,05,02,12,45,17.10
2023,05,02,12,46,17.00
2023,05,02,12,47,16.80
2023,05,02,12,48,16.70
2023,05,02,12,49,16.70
2023,05,02,12,50,16.70
2023,05,02,12,51,16.60
2023,05,02,12,52,16.60
2023,05,02,12,53,16.60
2023,05,02,12,54,16.60
2023,05,02,12,55,16.70
2023,05,02,12,56,16.70
2023,05,02,12,57,16.70
2023,05,02,12,58,16.70
2023,05,02,12,59,16.80
2023,05,02,13,00,16.90
2023,05,02,13,01,17.00
2023,05,02,13,02,17.20
2023,05,02,13,03,17.30
2023,05,02,13,04,17.20
2023,05,02,13,05,17.10
2023,05,02,13,06,17.10
2023,05,02,13,07,17.10
2023,05,02,13,08,17.10
2023,05,02,13,09,17.20
2023,05,02,13,10,17.30
2023,05,02,13,11,17.30
2023,05,02,13,12,17.30
2023,05,02,13,13,17.30
2023,05,02,13,14,17.20
2023,05,02,13,15,17.10
2023,05,02,13,16,17.00
2023,05,02,13,17,17.10
2023,05,02,13,18,17.10
2023,05,02,13,19,17.10
2023,05,02,13,20,17.20
2023,05,02,13,21,17.40
2023,05,02,13,22,17.50
2023,05,02,13,23,17.50
2023,05,02,13,24,17.50
2023,05,02,13,25,17.60
2023,05,02,13,26,17.60
2023,05,02,13,27,17.60
2023,05,02,13,28,17.50
2023,05,02,13,29,17.50
2023,05,02,13,30,17.50
2023,05,02,13,31,17.40
2023,05,02,13,32,17.30
2023,05,02,13,33,17.30
2023,05,02,13,34,17.40
2023,05,02,13,35,17.50
2023,05,02,13,36,17.60
2023,05,02,13,37,17.50
2023,05,02,13,38,17.50
2023,05,02,13,39,17.60
2023,05,02,13,40,17.70
2023,05,02,13,41,17.80
2023,05,02,13,42,17.80
2023,05,02,13,43,17.90
2023,05,02,13,44,18.00
2023,05,02,13,45,18.10
2023,05,02,13,46,18.20
2023,05,02,13,47,18.30
2023,05,02,13,48,18.30
2023,05,02,13,49,18.30
2023,05,02,13,50,18.30
2023,05,02,13,51,18.30
2023,05,02,13,52,18.40
2023,05,02,13,53,18.40
2023,05,02,13,54,18.40
2023,05,02,13,55,18.40
2023,05,02,13,56,18.50
2023,05,02,13,57,18.60
2023,05,02,13,58,18.60
2023,05,02,13,59,18.50
2023,05,02,14,00,18.50
2023,05,02,14,01,18.60
2023,05,02,14,02,18.60
2023,05,02,14,03,18.50
2023,05,02,14,04,18.50
2023,05,02,14,05,18.40
2023,05,02,14,06,18.40
2023,05,02,14,07,18.40
2023,05,02,14,08,18.30
2023,05,02,14,09,18.30
2023,05,02,14,10,18.40
2023,05,02,14,11,18.50
2023,05,02,14,12,18.60
2023,05,02,14,13,18.70
2023,05,02,14,14,18.80
2023,05,02,14,15,18.90
2023,05,02,14,16,19.00
2023,05,02,14,17,19.10
2023,05,02,14,18,19.10
2023,05,02,14,19,19.10
2023,05,02,14,20,19.20
2023,05,02,14,21,19.30
2023,05,02,14,22,19.30
2023,05,02,14,23,19.20
2023,05,02,14,24,19.10
2023,05,02,14,25,19.10
2023,05,02,14,26,19.20
2023,05,02,14,27,19.30
2023,05,02,14,28,19.30
2023,05,02,14,29,19.30
2023,05,02,14,30,19.20
2023,05,02,14,31,19.20
2023,05,02,14,32,19.20
2023,05,02,14,33,19.10
2023,05,02,14,34,19.10
2023,05,02,14,35,19.10
2023,05,02,14,36,19.10
2023,05,02,14,37,19.10
2023,05,02,14,38,19.30
2023,05,02,14,39,19.30
2023,05,02,14,40,19.40
2023,05,02,14,41,19.40
2023,05,02,14,42,19.50
2023,05,02,14,43,19.60
2023,05,02,14,44,19.60
2023,05,02,14,45,19.70
2023,05,02,14,46,19.90
2023,05,02,14,47,19.90
2023,05,02,14,48,20.00
2023,05,02,14,49,20.10
2023,05,02,14,50,20.20
2023,05,02,14,51,20.30
2023,05,02,14,52,20.40
2023,05,02,14,53,20.40
2023,05,02,14,54,20.40
2023,05,02,14,55,20.50
2023,05,02,14,56,20.60
2023,05,02,14,57,20.70
2023,05,02,14,58,20.80
2023,05,02,14,59,20.80
2023,05,02,15,00,20.90
2023,05,02,15,01,20.80
2023,05,02,15,02,20.80
2023,05,02,15,03,20.80
2023,05,02,15,04,20.90
2023,05,02,15,05,21.00
2023,05,02,15,06,21.00
2023,05,02,15,07,21.10
2023,05,02,15,08,21.10
2023,05,02,15,09,21.10
2023,05,02,15,10,21.10
2023,05,02,15,11,21.20
2023,05,02,15,12,21.10
2023,05,02,15,13,21.10
2023,05,02,15,14,21.00
2023,05,02,15,15,21.00
2023,05,02,15,16,20.90
2023,05,02,15,17,20.90
2023,05,02,15,18,20.80
2023,05,02,15,19,20.80
2023,05,02,15,20,20.70
2023,05,02,15,21,20.60
2023,05,02,15,22,20.60
2023,05,02,15,23,20.70
2023,05,02,15,24,20.80
2023,05,02,15,25,20.90
2023,05,02,15,26,21.10
2023,05,02,15,27,21.20
2023,05,02,15,28,21.30
2023,05,02,15,29,21.40
2023,05,02,15,30,21.50
2023,05,02,15,31,21.60
2023,05,02,15,32,21.60
2023,05,02,15,33,21.70
2023,05,02,15,34,21.60
2023,05,02,15,35,21.40
2023,05,02,15,36,21.30
2023,05,02,15,37,21.40
2023,05,02,15,38,21.40
2023,05,02,15,39,21.30
2023,05,02,15,40,21.30
2023,05,02,15,41,21.30
2023,05,02,15,42,21.20
2023,05,02,15,43,21.20
2023,05,02,15,44,21.20
2023,05,02,15,45,21.30
2023,05,02,15,46,21.50
2023,05,02,15,47,21.60
2023,05,02,15,48,21.60
2023,05,02,15,49,21.60
2023,05,02,15,50,21.60
2023,05,02,15,51,21.70
2023,05,02,15,52,21.70
2023,05,02,15,53,21.90
2023,05,02,15,54,22.00
2023,05,02,15,55,21.80
2023,05,02,15,56,21.50
2023,05,02,15,57,21.30
2023,05,02,15,58,21.10
2023,05,02,15,59,20.80
2023,05,02,16,00,20.70
2023,05,02,16,01,20.70
2023,05,02,16,02,20.70
2023,05,02,16,03,20.80
2023,05,02,16,04,20.90
2023,05,02,16,05,21.00
2023,05,02,16,06,21.00
2023,05,02,16,07,21.00
2023,05,02,16,08,21.00
2023,05,02,16,09,21.00
2023,05,02,16,10,21.00
2023,05,02,16,11,21.10
2023,05,02,16,12,21.10
2023,05,02,16,13,21.20
2023,05,02,16,14,21.30
2023,05,02,16,15,21.40
2023,05,02,16,16,21.40
2023,05,02,16,17,21.40
2023,05,02,16,18,21.40
2023,05,02,16,19,21.60
2023,05,02,16,20,21.60
2023,05,02,16,21,21.80
2023,05,02,16,22,21.90
2023,05,02,16,23,21.90
2023,05,02,16,24,21.80
2023,05,02,16,25,21.80
2023,05,02,16,26,21.80
2023,05,02,16,27,21.60
2023,05,02,16,28,21.60
2023,05,02,16,29,21.60
2023,05,02,16,30,21.50
2023,05,02,16,31,21.50
2023,05,02,16,32,21.60
2023,05,02,16,33,21.60
2023,05,02,16,34,21.60
2023,05,02,16,35,21.60
2023,05,02,16,36,21.50
2023,05,02,16,37,21.30
2023,05,02,16,38,21.20
2023,05,02,16,39,21.00
2023,05,02,16,40,20.90
2023,05,02,16,41,20.70
2023,05,02,16,42,20.60
2023,05,02,16,43,20.60
2023,05,02,16,44,20.60
2023,05,02,16,45,20.50
2023,05,02,16,46,20.50
2023,05,02,16,47,20.50
2023,05,02,16,48,20.50
2023,05,02,16,49,20.50
2023,05,02,16,50,20.50
2023,05,02,16,51,20.50
2023,05,02,16,52,20.50
2023,05,02,16,53,20.50
2023,05,02,16,54,20.50
2023,05,02,16,55,20.50
2023,05,02,16,56,20.40
2023,05,02,16,57,20.40
2023,05,02,16,58,20.20
2023,05,02,16,59,20.20
2023,05,02,17,00,20.20
2023,05,02,17,01,20.10
2023,05,02,17,02,20.10
2023,05,02,17,03,20.20
2023,05,02,17,04,20.10
2023,05,02,17,05,20.10
2023,05,02,17,06,20.00
2023,05,02,17,07,19.90
2023,05,02,17,08,19.90
2023,05,02,17,09,20.10
2023,05,02,17,10,20.20
2023,05,02,17,11,20.20
2023,05,02,17,12,20.30
2023,05,02,17,13,20.30
2023,05,02,17,14,20.40
2023,05,02,17,15,20.50
2023,05,02,17,16,20.50
2023,05,02,17,17,20.50
2023,05,02,17,18,20.50
2023,05,02,17,19,20.50
2023,05,02,17,20,20.60
2023,05,02,17,21,20.60
2023,05,02,17,22,20.60
2023,05,02,17,23,20.60
2023,05,02,17,24,20.60
2023,05,02,17,25,20.60
2023,05,02,17,26,20.60
2023,05,02,17,27,20.60
2023,05,02,17,28,20.60
2023,05,02,17,29,20.60
2023,05,02,17,30,20.50
2023,05,02,17,31,20.40
2023,05,02,17,32,20.40